TimeCDT,TemperatureF,Dew PointF,Humidity,Sea Level PressureIn,VisibilityMPH,Wind Direction,Wind SpeedMPH,Gust SpeedMPH,PrecipitationIn,Events,Conditions,WindDirDegrees,DateUTC
12:56 AM,75.0,73.0,94,29.93,-9999.0,ESE,6.9,-,N/A,,Unknown,110,2013-08-05 05:56:00
1:56 AM,73.9,73.0,97,29.92,-9999.0,East,5.8,-,N/A,,Unknown,100,2013-08-05 06:56:00
2:56 AM,73.9,73.0,97,29.91,-9999.0,Variable,4.6,-,N/A,,Unknown,0,2013-08-05 07:56:00
3:56 AM,73.9,73.0,97,29.90,-9999.0,ESE,5.8,-,N/A,,Unknown,120,2013-08-05 08:56:00
4:56 AM,73.9,73.0,97,29.90,-9999.0,ESE,5.8,-,N/A,,Unknown,110,2013-08-05 09:56:00
5:56 AM,73.9,72.0,93,29.90,-9999.0,ESE,4.6,-,N/A,,Unknown,120,2013-08-05 10:56:00
6:56 AM,73.0,71.1,93,29.89,-9999.0,SSE,5.8,-,N/A,,Unknown,160,2013-08-05 11:56:00
7:56 AM,73.0,71.1,93,29.89,-9999.0,SSE,4.6,-,N/A,,Unknown,160,2013-08-05 12:56:00
8:56 AM,75.9,72.0,87,29.88,-9999.0,SSW,6.9,-,N/A,,Unknown,210,2013-08-05 13:56:00
9:56 AM,81.0,70.0,69,29.86,-9999.0,SSW,5.8,-,N/A,,Unknown,210,2013-08-05 14:56:00
10:56 AM,88.0,66.9,49,29.85,-9999.0,SW,12.7,-,N/A,,Unknown,230,2013-08-05 15:56:00
11:56 AM,93.0,64.9,39,29.83,-9999.0,WSW,9.2,-,N/A,,Unknown,240,2013-08-05 16:56:00
12:56 PM,96.1,64.9,36,29.82,-9999.0,NW,5.8,-,N/A,,Unknown,320,2013-08-05 17:56:00
1:56 PM,95.0,64.9,37,29.81,-9999.0,SSW,5.8,-,N/A,,Unknown,210,2013-08-05 18:56:00
2:56 PM,99.0,64.0,32,29.80,-9999.0,West,5.8,-,N/A,,Unknown,260,2013-08-05 19:56:00
3:56 PM,99.0,62.1,30,29.77,-9999.0,Calm,Calm,-,N/A,,Unknown,0,2013-08-05 20:56:00
4:56 PM,95.0,73.9,50,29.75,-9999.0,ENE,19.6,26.5,N/A,,Unknown,60,2013-08-05 21:56:00
5:56 PM,93.0,73.9,54,29.73,-9999.0,ENE,19.6,27.6,N/A,,Unknown,70,2013-08-05 22:56:00
6:56 PM,88.0,71.1,57,29.79,-9999.0,SSW,10.4,-,N/A,,Unknown,210,2013-08-05 23:56:00
7:56 PM,73.9,69.1,85,29.79,-9999.0,Variable,5.8,-,0.71,,Unknown,0,2013-08-06 00:56:00
8:56 PM,79.0,73.0,82,29.83,-9999.0,East,4.6,-,0.02,,Unknown,100,2013-08-06 01:56:00
9:56 PM,70.0,66.0,87,29.89,-9999.0,North,13.8,-,0.03,,Unknown,10,2013-08-06 02:56:00
10:56 PM,71.1,68.0,90,29.89,-9999.0,North,9.2,-,0.05,,Unknown,10,2013-08-06 03:56:00
11:56 PM,73.0,69.1,87,29.89,-9999.0,East,5.8,-,0.10,,Unknown,80,2013-08-06 04:56:00